Location: Hohe Wand Waldeggerhaus
(47.8500°N, 16.0440°E)
Time: 22:39:35
(UTC+02:00)

STARLINK-2751 - Pass Details

Date: 24 June 2021
Orbit: 348 x 351 km, 53.0° (Epoch: 05 August)

Event Time Altitude Azimuth Distance (km) Brightness Sun altitude
Exits shadow 02:32:59 - 125° (SE) 2,179 6.6 -15.6°
Enters shadow 03:28:31 -73° 242° (WSW) 12,544 10.4 -11.2°
Maximum altitude 04:07:39 22° 138° (SE) 874 4.6 -7.1°
